Location: Wald
(31.7579°N, 86.6655°W)
Time: 00:23:32
(UTC+00:00)

Cosmos 1833 Rocket - Pass Details

Date: 14 July 2020
Orbit: 832 x 840 km, 71.0° (Epoch: 12 August)

Event Time Altitude Azimuth Distance (km) Brightness Sun altitude
Exits shadow 07:31:39 56° 4° (N) 981 3.2 -31.6°
Drops below altitude 10° 07:36:04 10° 18° (NNE) 2,444 6.0 -31.2°
Sets 07:38:31 0° 19° (NNE) 3,382 7.0 -30.9°
